Location: Albany
(35.0170°S, 117.8920°E)
Time: 18:14:00
(UTC+08:00)

Altair - All Passes

Search period start: 24 January 2021 00:00
Search period end: 03 February 2021 00:00
Orbit: 1501 x 1682 km, 47.2° (Epoch: 23 January)

Date Brightness Start Highest point End Pass type
(mag) Time Alt. Az. Time Alt. Az. Time Alt. Az.
24 Jan - 00:40:38 10° WSW 00:49:33 53° NW 00:58:42 10° NNE visible
24 Jan - 02:51:31 10° WNW 02:52:50 10° WNW 02:54:09 10° NW visible
24 Jan - 13:55:32 10° NE 13:58:51 12° ENE 14:02:09 10° ENE daylight
24 Jan - 15:53:02 10° NNW 16:02:11 57° NE 16:11:10 10° ESE daylight
24 Jan - 17:57:50 10° WNW 18:06:58 56° SSW 18:16:02 10° SE daylight
24 Jan - 20:04:50 10° WSW 20:13:19 38° S 20:21:49 10° ESE visible
24 Jan - 22:10:34 10° SW 22:19:39 57° SSE 22:28:51 10° ENE visible
25 Jan - 00:15:25 10° WSW 00:24:26 57° NW 00:33:40 10° NNE visible
25 Jan - 02:24:26 10° W 02:27:47 12° WNW 02:31:11 10° NW visible
25 Jan - 13:32:37 10° NE 13:33:49 10° ENE 13:34:59 10° ENE daylight
25 Jan - 15:28:00 10° NNW 15:37:04 53° NE 15:45:57 10° ESE daylight
25 Jan - 17:32:31 10° WNW 17:41:44 60° SSW 17:50:51 10° SE daylight
25 Jan - 19:39:30 10° WSW 19:48:00 38° S 19:56:30 10° ESE visible
25 Jan - 21:45:23 10° SW 21:54:24 54° SSE 22:03:32 10° E visible
25 Jan - 23:50:13 10° WSW 23:59:18 62° NW 00:08:38 10° NE visible
26 Jan - 01:58:17 10° W 02:02:44 14° WNW 02:07:16 10° NNW visible
26 Jan - 15:03:01 10° NNW 15:11:58 48° NE 15:20:43 10° ESE daylight
26 Jan - 17:07:13 10° WNW 17:16:31 63° SSW 17:25:41 10° SE daylight
26 Jan - 19:14:10 10° WSW 19:22:41 39° S 19:31:12 10° ESE daylight
26 Jan - 21:20:12 10° SW 21:29:09 51° SSE 21:38:12 10° E visible
26 Jan - 23:25:01 10° WSW 23:34:10 68° NW 23:43:32 10° NE visible
27 Jan - 01:32:25 10° W 01:37:41 16° NW 01:43:02 10° NNW visible
27 Jan - 14:38:03 10° NNW 14:46:52 44° NE 14:55:28 10° ESE daylight
27 Jan - 16:41:56 10° WNW 16:51:18 67° SSW 17:00:31 10° SE daylight
27 Jan - 18:48:49 10° WSW 18:57:23 39° S 19:05:54 10° ESE daylight
27 Jan - 20:55:00 10° SW 21:03:53 49° SSE 21:12:51 10° E visible
27 Jan - 22:59:50 10° WSW 23:09:02 73° NW 23:18:26 10° NE visible
28 Jan - 01:06:44 10° W 01:12:37 19° NW 01:18:39 10° NNW visible
28 Jan - 14:13:07 10° NNW 14:21:46 40° NE 14:30:12 10° ESE daylight
28 Jan - 16:16:39 10° WNW 16:26:06 71° SSW 16:35:21 10° SE daylight
28 Jan - 18:23:28 10° WSW 18:32:04 40° S 18:40:36 10° ESE daylight
28 Jan - 20:29:47 10° SW 20:38:37 47° SSE 20:47:30 10° E visible
28 Jan - 22:34:39 10° WSW 22:43:54 79° NW 22:53:18 10° NE visible
29 Jan - 00:41:08 10° W 00:47:35 21° NW 00:54:07 10° N visible
29 Jan - 13:48:13 10° NNW 13:56:41 36° NE 14:04:55 10° ESE daylight
29 Jan - 15:51:23 10° WNW 16:00:54 76° SSW 16:10:11 10° SE daylight
29 Jan - 17:58:06 10° WSW 18:06:46 40° S 18:15:21 10° ESE daylight
29 Jan - 20:04:34 10° SW 20:13:21 45° SSE 20:22:09 10° E visible
29 Jan - 22:09:29 10° SW 22:18:45 84° NW 22:28:09 10° NE visible
30 Jan - 00:15:38 10° WSW 00:22:31 24° NW 00:29:31 10° N visible
30 Jan - 13:23:21 10° N 13:31:35 33° NE 13:39:35 10° ESE daylight
30 Jan - 15:26:09 10° WNW 15:35:42 80° SSW 15:45:02 10° SE daylight
30 Jan - 17:32:44 10° W 17:41:28 41° S 17:50:05 10° ESE daylight
30 Jan - 19:39:20 10° SW 19:48:04 44° SSE 19:56:48 10° E visible
30 Jan - 21:44:18 10° SW 21:53:36 90° NNW 22:02:58 10° NE visible
30 Jan - 23:50:11 10° WSW 23:57:27 27° NW 00:04:50 10° N visible
31 Jan - 12:58:33 10° N 13:06:30 30° NE 13:14:14 10° ESE daylight
31 Jan - 15:00:56 10° NW 15:10:31 85° SW 15:19:52 10° SE daylight
31 Jan - 17:07:22 10° W 17:16:10 43° SSW 17:24:51 10° ESE daylight
31 Jan - 19:14:05 10° WSW 19:22:47 42° SSE 19:31:27 10° E daylight
31 Jan - 21:19:08 10° SW 21:28:25 85° SE 21:37:47 10° NE visible
31 Jan - 23:24:48 10° WSW 23:32:23 30° NW 23:40:06 10° N visible
01 Feb - 12:33:48 10° N 12:41:25 27° NE 12:48:51 10° ESE daylight
01 Feb - 14:35:43 10° NW 14:45:20 89° NE 14:54:42 10° SE daylight
01 Feb - 16:41:59 10° W 16:50:53 44° SSW 16:59:37 10° SE daylight
01 Feb - 18:48:49 10° WSW 18:57:29 41° S 19:06:06 10° E daylight
01 Feb - 20:53:58 10° SW 21:03:15 80° SSE 21:12:35 10° ENE visible
01 Feb - 22:59:26 10° WSW 23:07:18 33° NW 23:15:18 10° N visible
02 Feb - 12:09:06 10° N 12:16:20 24° NE 12:23:25 10° ESE daylight
02 Feb - 14:10:32 10° NW 14:20:10 84° NE 14:29:32 10° SE daylight
02 Feb - 16:16:37 10° W 16:25:36 46° SSW 16:34:24 10° SE daylight
02 Feb - 18:23:32 10° WSW 18:32:11 40° S 18:40:45 10° ESE daylight
02 Feb - 20:28:48 10° SW 20:38:04 75° SSE 20:47:21 10° ENE visible
02 Feb - 22:34:06 10° WSW 22:42:14 36° NW 22:50:28 10° NNE visible
